Temp
15 16 16 16 16 17 17 17 18 18 19 19 19 20 20 21 21 22 23 23 22 22 22 22 22 23 23 23 23 23 27 27 27 26 27 23 25 21 21 22 21 20 20 21 20
15 15 15 16 16 17 17 18 18 18 19 19 19 20 20 21 22 23 23 22 22 22 22 23 23 23 23 23 23 25 27 27 26 26 27 24 25 24 23 22 21 20 20 20 20
15 15 16 16 16 16 17 18 18 18 19 19 20 20 20 21 22 22 23 22 22 22 23 23 23 24 23 23 23 23 27 25 27 25 24 24 23 22 24 25 23 21 18 20 20
15 15 15 16 16 16 17 17 18 19 20 20 20 20 21 21 23 22 23 22 22 23 23 24 24 23 24 25 23 26 24 24 26 23 23 24 23 24 23 24 22 22 20 20 19
15 15 15 16 16 16 17 18 18 19 19 20 20 20 20 21 22 22 23 22 23 23 24 24 24 23 26 24 23 25 25 23 25 24 23 23 24 25 24 23 23 20 19 19 19
15 15 15 16 16 17 18 18 19 19 20 20 20 20 20 21 22 22 22 23 23 24 24 24 24 24 24 24 25 24 24 24 24 23 23 25 23 22 24 22 20 19 19 18 19
15 15 15 16 17 17 18 19 19 20 20 20 20 20 20 22 22 23 22 23 24 24 24 24 24 24 24 25 23 23 26 26 25 24 25 24 25 25 21 21 21 19 19 19 19
14 15 15 16 17 18 18 19 20 20 20 20 20 20 21 23 22 23 23 23 24 24 23 23 24 24 23 23 23 25 25 27 26 25 23 24 28 23 19 20 22 20 18 18 19
14 15 16 16 17 18 19 20 20 20 20 20 20 20 22 22 22 23 23 24 24 23 23 23 23 23 23 25 25 24 27 27 26 24 25 26 27 21 19 20 22 21 19 19 20
14 15 16 16 17 18 19 19 20 19 19 19 20 20 22 22 23 23 23 23 23 23 23 23 23 24 23 25 26 26 27 26 26 25 25 25 24 21 20 20 21 21 21 20 20
14 15 15 16 17 18 19 19 19 19 19 20 21 21 21 22 22 23 23 23 23 23 24 21 24 25 26 24 25 25 26 25 24 24 25 22 22 21 21 20 21 22 22 21 21
14 15 15 16 17 18 18 18 16 15 15 21 20 21 22 21 22 23 23 23 23 23 22 23 23 24 23 23 23 24 24 24 23 23 25 22 22 21 21 21 21 21 22 21 20
14 15 15 17 18 18 18 17 17 16 15 19 20 21 22 22 22 23 23 23 23 23 23 24 25 23 24 23 23 23 25 23 26 23 22 24 25 23 22 20 20 20 20 20 19
14 14 15 16 17 17 17 17 17 17 19 20 20 22 22 23 23 24 24 24 23 24 23 24 24 24 24 25 26 26 25 25 24 26 26 23 26 23 23 22 21 22 22 22 21
13 14 14 15 16 17 17 17 17 17 19 22 21 22 22 23 23 23 24 24 24 24 24 25 25 25 26 27 26 25 25 25 25 25 25 23 25 27 20 22 23 24 23 22 22
13 14 14 15 17 17 18 18 18 19 18 22 22 23 23 23 23 22 23 24 23 24 23 25 23 25 27 24 26 23 24 24 23 25 26 23 25 27 23 23 23 23 22 22 21
13 14 14 16 16 17 18 18 19 17 21 21 22 22 23 23 23 24 23 23 24 23 24 24 25 25 26 26 25 25 26 25 25 25 25 22 24 26 24 24 23 25 23 22 21
14 14 15 16 17 18 18 19 18 19 20 21 22 21 22 23 24 23 23 23 22 23 23 26 26 26 26 27 27 25 27 26 24 24 26 22 24 26 24 22 21 23 22 21 21
14 15 15 15 16 17 17 18 19 19 20 21 21 22 22 23 23 23 23 23 24 23 24 25 25 25 25 26 27 24 26 23 23 20 25 24 24 24 23 24 22 23 21 21 21
13 14 15 16 16 16 17 16 18 19 19 20 20 21 22 22 23 23 22 23 24 23 24 24 25 25 24 25 24 26 23 25 24 23 23 23 23 26 24 24 23 23 23 22 22
12 13 14 14 14 15 17 17 18 19 19 20 20 20 21 22 23 23 24 24 23 23 24 24 24 25 25 25 25 24 25 21 22 22 24 24 25 23 23 23 24 24 23 23 22
11 13 15 15 15 12 17 17 18 19 19 20 19 19 20 21 22 22 23 23 22 22 24 23 23 24 24 23 23 24 23 23 25 21 20 22 25 23 22 22 21 22 22 23 22
10 12 14 14 16 16 16 18 18 19 19 19 19 20 20 21 22 22 22 22 21 22 23 22 22 23 23 24 23 24 21 20 20 21 21 24 25 22 22 23 21 20 21 20 20
9 12 13 13 12 14 16 17 18 18 18 18 19 20 20 21 20 22 22 22 20 21 21 21 19 24 25 25 24 23 22 21 23 24 21 23 24 24 24 22 21 19 19 19 18
9 10 8 13 13 13 13 15 17 17 17 18 19 19 19 20 21 21 21 22 21 19 19 22 23 21 20 22 23 23 23 22 23 22 24 23 23 24 22 20 18 17 17 18 17
8 8 8 9 9 12 11 14 16 16 16 18 18 18 18 19 20 21 21 21 21 21 20 18 20 21 21 21 23 23 23 23 23 21 22 22 22 20 17 17 17 16 17 17 16
8 8 8 9 11 13 13 13 15 14 16 15 16 16 18 18 17 18 18 17 18 21 19 19 19 21 21 20 22 22 22 22 21 21 23 22 21 18 18 17 16 16 16 15 15
Height
1548 1545 1543 1540 1537 1534 1532 1530 1526 1525 1522 1519 1515 1512 1510 1508 1507 1506 1507 1509 1510 1511 1513 1515 1518 1520 1521 1521 1521 1521 1520 1524 1524 1524 1520 1523 1522 1527 1527 1530 1533 1536 1538 1541 1542
1547 1545 1542 1539 1536 1533 1531 1528 1525 1524 1521 1517 1515 1511 1510 1507 1506 1505 1508 1509 1510 1512 1513 1516 1518 1520 1521 1521 1522 1521 1521 1522 1521 1521 1520 1522 1524 1526 1528 1532 1535 1536 1538 1541 1544
1546 1544 1540 1539 1535 1532 1529 1526 1525 1522 1519 1516 1513 1510 1509 1507 1507 1507 1507 1509 1511 1512 1514 1516 1518 1520 1521 1522 1523 1522 1520 1522 1520 1522 1523 1523 1525 1526 1526 1530 1532 1534 1537 1541 1544
1544 1542 1539 1537 1534 1531 1528 1526 1523 1520 1517 1514 1512 1510 1508 1508 1509 1507 1507 1509 1511 1513 1514 1515 1517 1519 1520 1520 1522 1522 1523 1523 1520 1521 1523 1523 1525 1525 1526 1529 1529 1534 1536 1539 1544
1543 1541 1538 1535 1533 1530 1526 1524 1521 1518 1515 1512 1511 1509 1508 1508 1507 1507 1507 1509 1511 1513 1514 1515 1516 1518 1518 1520 1522 1522 1524 1522 1521 1521 1523 1523 1524 1524 1524 1527 1530 1533 1537 1540 1544
1542 1540 1537 1534 1531 1527 1523 1520 1518 1515 1512 1510 1509 1508 1509 1508 1506 1506 1507 1509 1511 1513 1514 1514 1515 1516 1518 1520 1520 1522 1525 1522 1522 1523 1524 1524 1525 1525 1526 1528 1531 1534 1537 1541 1544
1540 1538 1534 1530 1526 1523 1520 1516 1514 1512 1510 1508 1508 1507 1508 1507 1506 1506 1506 1508 1511 1513 1514 1514 1515 1517 1517 1518 1520 1521 1522 1521 1523 1524 1525 1524 1527 1525 1528 1528 1535 1537 1539 1541 1544
1539 1536 1532 1529 1524 1521 1517 1513 1511 1509 1508 1506 1506 1507 1505 1505 1505 1505 1506 1508 1510 1513 1514 1513 1514 1516 1518 1519 1520 1521 1523 1523 1523 1525 1526 1526 1525 1527 1528 1530 1535 1538 1540 1541 1543
1537 1533 1531 1527 1522 1519 1514 1511 1509 1508 1506 1506 1506 1506 1505 1504 1505 1505 1506 1509 1510 1512 1512 1513 1514 1516 1518 1518 1521 1523 1524 1522 1525 1525 1525 1525 1523 1529 1529 1531 1534 1538 1540 1543 1543
1536 1531 1528 1525 1520 1518 1513 1509 1509 1506 1506 1506 1505 1509 1505 1505 1504 1505 1507 1508 1510 1511 1512 1513 1513 1514 1518 1518 1526 1524 1521 1522 1523 1526 1524 1525 1529 1529 1531 1532 1533 1534 1537 1540 1542
1534 1530 1526 1524 1519 1516 1512 1510 1511 1509 1507 1503 1502 1504 1504 1504 1503 1505 1507 1508 1509 1510 1510 1512 1514 1513 1511 1515 1516 1518 1519 1523 1525 1525 1525 1530 1531 1531 1531 1532 1533 1534 1535 1536 1537
1533 1529 1526 1523 1518 1516 1512 1512 1515 1519 1507 1499 1499 1498 1500 1502 1502 1503 1505 1508 1507 1509 1511 1513 1514 1510 1512 1515 1517 1519 1523 1528 1528 1527 1524 1534 1533 1533 1532 1532 1532 1532 1532 1535 1536
1531 1528 1524 1521 1518 1516 1514 1514 1514 1512 1510 1495 1493 1492 1496 1499 1499 1500 1504 1504 1506 1509 1509 1509 1508 1509 1510 1514 1517 1519 1517 1525 1520 1527 1529 1530 1531 1531 1531 1530 1529 1530 1530 1532 1533
1531 1527 1524 1519 1521 1517 1515 1514 1512 1509 1508 1496 1490 1489 1493 1495 1497 1497 1501 1504 1505 1504 1508 1508 1506 1506 1509 1508 1506 1512 1511 1516 1520 1522 1532 1534 1538 1532 1528 1527 1529 1529 1528 1530 1532
1529 1527 1523 1519 1519 1517 1516 1514 1511 1510 1522 1491 1489 1489 1491 1494 1493 1496 1498 1501 1502 1502 1505 1504 1503 1505 1504 1499 1500 1512 1511 1515 1519 1526 1531 1539 1540 1519 1533 1527 1526 1525 1527 1528 1530
1528 1525 1520 1517 1516 1515 1513 1512 1511 1516 1521 1491 1488 1489 1492 1491 1492 1495 1497 1500 1501 1502 1502 1499 1501 1499 1495 1500 1500 1510 1514 1521 1525 1527 1538 1538 1537 1521 1528 1521 1522 1523 1525 1527 1529
1525 1523 1519 1516 1513 1511 1511 1511 1516 1523 1496 1497 1493 1490 1490 1489 1492 1492 1495 1498 1500 1509 1505 1498 1496 1495 1495 1500 1505 1506 1512 1533 1538 1537 1539 1540 1539 1522 1518 1517 1521 1520 1525 1527 1529
1522 1520 1515 1512 1510 1509 1509 1510 1522 1506 1502 1494 1493 1491 1492 1488 1490 1492 1495 1499 1499 1499 1503 1500 1508 1493 1492 1494 1501 1508 1508 1522 1548 1544 1532 1539 1537 1522 1518 1517 1518 1521 1524 1525 1525
1518 1515 1511 1508 1507 1506 1510 1511 1509 1505 1501 1498 1490 1490 1489 1487 1488 1490 1493 1495 1492 1494 1501 1500 1501 1492 1493 1495 1497 1511 1512 1517 1532 1545 1533 1533 1524 1518 1516 1517 1519 1521 1523 1523 1524
1515 1512 1508 1505 1503 1505 1507 1508 1502 1499 1500 1498 1500 1493 1493 1488 1489 1488 1493 1487 1488 1488 1490 1495 1504 1494 1497 1496 1502 1500 1511 1522 1523 1545 1547 1537 1534 1522 1518 1516 1518 1519 1518 1520 1521
1514 1511 1508 1505 1505 1505 1505 1504 1501 1498 1500 1499 1498 1496 1490 1487 1485 1487 1487 1483 1483 1486 1490 1492 1497 1501 1496 1500 1502 1509 1510 1523 1525 1533 1535 1541 1531 1517 1519 1518 1515 1516 1516 1517 1518
1512 1510 1505 1505 1506 1505 1500 1500 1498 1497 1498 1497 1495 1493 1491 1486 1485 1487 1486 1482 1481 1482 1489 1490 1497 1503 1503 1501 1501 1500 1507 1511 1517 1541 1541 1535 1528 1517 1518 1519 1519 1517 1515 1515 1514
1511 1507 1504 1504 1503 1501 1500 1498 1497 1497 1496 1494 1492 1490 1488 1485 1488 1483 1482 1480 1480 1481 1483 1488 1499 1509 1510 1506 1503 1503 1510 1514 1519 1525 1534 1530 1526 1518 1518 1515 1515 1514 1516 1514 1511
1511 1506 1503 1503 1503 1502 1499 1496 1497 1494 1495 1493 1489 1489 1488 1485 1484 1482 1481 1480 1480 1481 1481 1482 1498 1493 1502 1500 1497 1507 1510 1512 1509 1518 1530 1525 1522 1517 1518 1518 1517 1516 1514 1512 1511
1511 1510 1509 1504 1504 1504 1503 1500 1497 1498 1494 1491 1487 1489 1489 1488 1483 1482 1481 1480 1481 1482 1483 1483 1492 1498 1501 1498 1498 1502 1506 1510 1509 1513 1516 1522 1522 1515 1519 1520 1520 1519 1516 1513 1512
1511 1511 1509 1507 1507 1505 1503 1501 1499 1498 1496 1489 1490 1490 1488 1488 1483 1483 1481 1482 1481 1483 1485 1488 1496 1496 1505 1501 1498 1504 1504 1505 1508 1514 1514 1517 1519 1519 1520 1520 1521 1520 1518 1516 1515
1510 1510 1510 1508 1505 1503 1502 1502 1499 1498 1492 1492 1491 1491 1486 1485 1487 1485 1484 1482 1482 1481 1485 1488 1493 1498 1507 1506 1503 1513 1506 1507 1509 1509 1508 1517 1516 1519 1519 1520 1520 1519 1518 1518 1518
Wind_Speed
15 16 17 17 18 19 20 21 20 21 20 18 18 16 12 8 8 3 2 9 10 9 10 15 13 7 5 5 3 2 2 4 2 1 1 4 7 3 3 5 4 3 6 13 25
16 17 17 18 18 19 20 20 20 20 19 19 19 14 11 7 3 6 9 10 9 9 12 16 12 6 3 3 1 0 2 2 1 1 1 7 6 6 3 6 3 3 7 23 25
18 18 18 19 20 20 20 20 21 19 18 19 17 13 9 6 4 4 8 8 7 11 15 14 9 6 2 2 2 1 1 1 2 4 2 9 5 3 4 4 8 10 19 26 25
18 19 19 20 20 20 20 20 20 19 17 17 15 12 7 1 2 3 5 9 7 14 14 9 8 5 3 3 3 2 1 3 4 3 6 9 8 4 6 3 1 7 18 25 24
18 20 20 20 21 21 20 20 20 19 17 15 13 11 6 2 2 3 5 8 10 15 10 9 8 5 5 3 3 3 2 1 5 2 6 11 4 4 6 3 1 11 17 21 20
19 20 21 20 21 22 21 20 20 18 15 12 11 9 6 2 2 3 6 8 14 13 9 7 5 6 5 2 1 2 1 2 2 5 6 5 2 2 3 2 6 15 17 16 17
19 21 22 22 23 24 22 20 19 16 12 9 8 8 7 2 1 2 7 11 17 12 9 8 7 3 3 3 0 1 6 3 5 6 2 5 2 3 9 5 6 11 12 13 14
20 21 23 23 23 24 22 18 17 12 9 6 7 7 5 4 2 3 11 15 16 10 5 5 3 4 2 2 3 2 3 7 2 3 1 4 2 3 4 2 7 10 11 11 8
21 21 23 23 23 22 19 16 12 9 6 4 7 3 3 3 4 7 13 13 10 6 5 3 4 3 3 2 2 3 5 8 6 2 3 3 1 3 2 0 5 8 7 9 9
22 22 23 24 22 21 14 13 7 6 4 6 3 2 2 2 5 11 11 11 7 6 7 4 2 2 2 3 5 4 4 3 3 3 2 2 1 1 2 2 5 7 8 10 10
22 24 23 22 21 16 12 6 6 3 12 8 7 13 14 3 6 10 11 9 5 4 3 2 2 6 8 5 4 5 4 2 2 4 2 2 2 0 3 3 7 8 12 14 14
21 24 24 22 19 10 9 7 9 9 12 17 19 18 19 10 2 10 12 7 4 4 4 2 3 5 4 6 3 3 4 5 4 7 1 2 1 3 3 3 5 8 15 12 12
22 24 24 22 12 14 4 8 15 19 5 8 7 8 12 13 7 12 14 7 4 5 6 3 5 8 6 6 6 6 7 11 8 7 8 4 2 3 3 3 6 9 14 12 12
21 25 24 23 7 15 0 13 19 5 3 4 3 3 10 8 5 15 16 8 3 9 6 4 3 5 8 7 8 4 9 11 15 7 3 2 3 6 6 5 6 11 12 8 10
21 23 25 22 20 16 5 13 11 2 4 1 2 2 9 8 8 9 19 10 5 6 4 4 7 7 6 3 6 5 10 10 10 5 4 5 3 1 3 9 11 15 13 11 6
21 23 26 24 20 10 12 10 2 2 4 3 2 4 6 3 3 5 7 7 2 3 2 4 2 3 2 5 3 15 11 9 5 3 5 4 6 4 3 4 7 20 15 13 8
21 22 24 22 19 15 8 3 1 3 5 5 3 3 8 5 3 4 7 9 5 5 4 2 3 2 4 9 7 3 6 3 3 4 3 3 5 5 6 8 12 16 16 13 10
23 24 25 20 11 9 5 2 5 3 4 3 5 6 7 6 5 3 7 10 4 1 3 4 6 4 3 3 8 6 5 4 5 4 3 4 4 3 5 7 8 10 12 13 15
24 23 24 8 13 6 6 3 5 4 4 7 8 2 5 5 3 4 7 7 6 11 4 3 3 2 2 3 3 5 4 3 6 1 3 1 3 3 2 2 5 12 12 16 15
22 23 12 12 5 10 2 4 3 3 4 3 3 3 1 6 6 8 8 5 4 11 4 3 3 3 5 4 13 2 9 4 2 5 4 1 3 1 1 4 6 10 16 15 16
15 11 4 3 2 4 3 4 3 4 2 2 2 4 3 2 5 5 6 3 5 8 7 4 0 3 3 1 8 5 4 6 4 2 3 3 2 1 2 5 9 14 15 16 19
5 3 4 5 2 2 2 3 0 1 2 4 3 6 4 3 2 6 7 3 5 13 9 3 3 4 2 4 1 1 5 4 3 4 2 2 3 1 5 5 5 9 11 14 17
7 6 4 4 3 2 2 2 1 2 3 2 3 5 3 2 1 2 3 1 4 9 10 8 3 5 5 3 2 3 4 5 7 3 6 4 3 0 8 10 9 11 7 7 8
4 2 2 1 2 2 1 1 3 3 6 5 3 4 3 2 2 1 1 1 1 3 4 9 3 5 8 8 4 6 7 7 4 4 7 3 1 2 6 8 13 14 14 12 10
2 1 1 2 2 2 2 2 1 3 3 5 1 5 4 2 2 1 0 1 3 5 3 3 4 3 3 3 4 9 12 9 4 10 4 7 5 4 5 6 8 10 11 12 12
2 2 3 3 5 3 1 1 2 3 3 1 2 7 3 3 2 1 2 0 1 3 2 2 4 4 3 4 7 6 7 7 5 7 5 5 5 1 1 1 4 7 9 11 11
2 3 3 2 3 2 1 2 1 6 3 8 8 4 3 3 8 4 2 4 3 1 3 2 6 2 5 2 5 3 7 6 4 4 6 4 2 4 3 4 3 5 7 7 8
Wind_Direction
346 343 343 347 346 345 341 342 346 341 340 334 336 340 332 327 316 306 144 158 169 164 144 143 147 153 149 147 146 120 117 90 111 189 84 155 188 145 147 113 103 110 147 162 159
345 343 342 343 343 343 338 339 339 339 338 334 333 343 331 338 16 105 144 150 151 155 144 146 144 162 143 132 154 298 105 153 191 240 243 163 206 158 179 138 152 124 155 164 161
343 340 342 340 340 338 336 336 333 336 337 335 333 340 329 348 105 101 157 164 151 146 142 146 140 163 117 129 140 158 65 216 353 239 242 159 163 195 202 170 190 180 153 166 169
341 339 340 339 338 332 333 331 329 332 336 336 331 336 328 359 109 124 153 180 155 145 142 143 139 133 128 151 153 209 329 258 318 131 148 166 151 212 222 113 289 157 162 167 176
340 336 337 337 334 330 330 328 324 327 331 334 328 334 324 283 136 125 136 168 164 155 139 129 128 140 144 156 164 170 79 70 289 175 138 145 185 256 221 219 52 151 164 171 180
338 335 334 336 332 328 329 327 322 324 325 328 324 332 309 254 129 119 145 162 162 152 131 117 110 138 119 146 246 109 126 217 216 145 157 158 155 301 49 227 94 150 166 175 190
339 335 335 336 334 331 330 327 323 322 317 318 320 321 275 223 176 141 160 162 160 146 126 113 106 114 140 133 324 34 107 110 90 145 208 131 121 251 330 250 134 152 159 177 196
337 336 334 336 335 334 332 330 325 320 313 328 320 303 247 213 219 175 165 160 162 161 139 126 102 121 122 119 50 64 113 148 145 182 197 258 188 333 352 210 165 164 155 165 172
336 337 336 338 337 337 336 335 323 319 295 329 315 280 260 237 207 162 149 156 154 164 176 171 125 104 102 142 127 56 150 144 139 57 142 224 254 24 24 138 204 186 183 186 196
336 338 338 340 340 339 342 340 318 324 310 300 279 281 250 158 159 176 167 143 151 153 124 150 109 121 114 187 177 152 131 88 77 46 129 117 182 21 2 268 255 261 238 221 214
339 338 341 342 341 344 354 358 351 339 313 261 265 267 280 300 179 179 187 181 169 157 148 49 172 209 198 197 149 142 112 138 71 22 137 87 182 3 347 260 251 265 262 256 253
340 338 343 345 343 5 13 60 40 338 302 289 276 257 247 250 260 187 182 173 162 158 142 154 217 213 160 173 144 112 141 152 109 2 128 143 123 306 270 256 264 267 270 267 265
341 340 342 349 349 3 76 27 346 329 254 291 242 232 239 221 213 187 178 165 157 162 191 183 140 159 182 173 169 178 178 170 157 115 80 139 255 258 204 247 270 271 271 291 299
343 339 341 351 350 350 171 341 331 325 286 270 240 234 199 183 202 183 186 171 187 201 177 238 166 205 182 195 192 156 202 160 142 162 162 7 260 241 243 234 278 274 272 292 313
340 339 337 344 333 333 319 324 328 12 312 81 174 163 182 182 142 181 184 191 205 183 192 132 178 169 191 177 185 93 143 138 147 101 140 191 265 240 289 242 235 257 260 268 270
331 335 334 333 327 318 315 326 145 306 257 341 117 149 174 208 125 131 164 194 175 190 246 254 235 239 133 82 98 146 106 88 85 137 221 151 227 248 227 247 222 244 236 243 230
322 328 326 321 311 303 304 329 218 225 325 5 1 9 210 168 153 150 168 185 194 171 213 210 191 200 173 99 109 100 137 124 182 193 234 134 179 295 283 271 232 227 221 221 214
314 321 324 317 300 281 258 103 224 282 297 319 312 288 212 167 184 137 150 200 206 137 149 174 156 158 156 120 173 171 187 182 205 212 200 148 221 140 296 288 234 219 220 216 213
311 316 325 305 307 239 178 175 213 206 310 312 326 205 184 205 167 160 179 202 214 189 217 163 115 93 39 123 174 151 169 83 104 56 232 46 238 221 2 131 193 204 211 222 221
316 319 322 315 259 166 175 239 228 182 299 323 345 332 261 175 173 189 179 187 212 195 199 168 122 91 148 99 49 194 135 145 117 162 215 165 282 281 66 244 224 226 232 234 234
316 317 341 53 133 193 199 217 259 247 333 333 306 296 282 228 194 189 201 192 218 172 195 145 109 136 179 123 153 142 137 67 98 351 167 174 191 264 319 265 248 238 243 243 241
301 277 261 329 299 308 194 203 279 292 284 266 241 244 252 304 202 205 215 250 209 153 178 160 129 150 83 327 204 106 132 133 164 173 57 336 176 345 316 314 258 268 268 267 259
311 270 270 251 236 225 271 235 244 269 267 280 262 232 211 294 313 220 196 216 199 178 165 170 180 133 116 146 179 130 100 102 100 123 173 189 150 107 326 340 340 323 326 322 305
314 299 313 220 92 309 331 251 260 272 256 247 270 300 284 264 243 241 205 10 146 190 144 131 117 182 190 177 145 148 139 149 135 163 157 212 151 212 346 340 337 339 342 352 1
304 2 358 347 64 355 304 338 280 304 267 246 221 238 287 276 233 163 99 313 70 146 78 147 151 121 46 135 148 147 151 160 141 145 179 154 213 304 330 329 337 343 5 21 30
315 350 337 295 300 268 337 116 278 310 255 283 227 336 304 253 306 239 168 233 71 109 86 18 131 131 86 71 140 144 154 149 129 158 136 164 244 105 142 140 33 26 30 39 45
293 317 326 326 334 260 77 329 254 350 266 257 310 293 302 24 335 341 46 90 91 136 112 82 136 144 145 75 126 158 203 189 147 163 155 191 102 179 165 131 88 61 66 68 77